Weather in Teberda

Russia / Karachay-Cherkess Republic     43°26′37″N   41°44′29″E
temp.,
°C
wind,
m/s
gust,
m/s
humid.,
%
clouds,
%
prec.,
mm/h
press.,
hPa
HPBL,
m
27 october, wed
wed2700:00−4ssw32380 0.0 103019
03:00−4ssw32380 0.0 102921
06:00−4ssw43490 0.0 102924
09:00+4s11360 0.0 1023125
12:00+8n11330 0.0 1021650
15:00+6n11580 0.0 1020318
18:00−1ssw43721 0.0 102536
21:00−2ssw55530 0.0 102648
28 october, thu
thu2800:00−2ssw45530 0.0 102646
03:00−3ssw43540 0.0 102637
06:00−3ssw43510 0.0 102640
09:00+4ssw23350 0.0 1021176
12:00+7ssw02310 0.0 1019881
15:00+5n02460 0.0 1019603
18:00−3ssw34761 0.0 102443
21:00−3ssw44590 0.0 102552
29 october, fri
fri2900:00−3ssw44500 0.0 102442
03:00−3ssw33460 0.0 102433
06:00−4ssw22450 0.0 102415
09:00+2ne113197 0.0 1021265
12:00+4nne323820 0.0 1019842
15:00+2nne325770 0.0 1021637
18:00−4sse019596 0.0 102610
21:00−3se0086100 0.0 102613
30 october, sat
sat3000:00−3s118697 0.0 102510
03:00−3ssw117943 0.0 102510
06:00−3ssw227914 0.0 102621
09:00+2sw125915 0.0 1023424
12:00+5nne125688 0.0 1022964
15:00+4ne216759 0.1 1023483
18:00−1s22895 0.1 102721
21:00−1s33864 0.1 102637
31 october, sun
sun3100:000ssw337996 0.0 102634
03:000ssw3265100 0.0 102520
06:000s3258100 0.0 102419
09:00+5ssw114387 0.0 1022128
12:00+9n1242100 0.0 1020934
15:00+8nne1156100 0.0 1019424
18:00+3ssw338288 0.0 102141
21:00+2ssw338588 0.0 102242